Location: Lake Sonoma
(38.7200°N, 123.0564°W)
Time: 11:48:24
(UTC-07:00)

ISS - Visible Passes

Search period start: 24 October 2014 00:00
Search period end: 02 November 2014 23:00
Orbit: 412 x 416 km, 51.6° (Epoch: 24 October)

Date Brightness Start Highest point End Pass type
(mag) Time Alt. Az. Time Alt. Az. Time Alt. Az.
24 Oct -3.3 19:46:08 10° NW 19:49:27 64° NE 19:49:50 58° ENE visible
25 Oct -2.6 18:57:04 10° NW 19:00:12 37° NNE 19:03:07 11° E visible
25 Oct -0.8 20:34:04 10° WNW 20:36:01 21° WSW 20:36:01 21° WSW visible
26 Oct -2.1 19:44:27 10° WNW 19:47:38 41° SW 19:49:29 21° SSE visible
27 Oct -3.2 18:55:04 10° NW 18:58:25 81° SW 19:01:44 10° SE visible
28 Oct -0.3 19:43:32 10° W 19:45:26 14° SW 19:47:19 10° SSW visible
29 Oct -0.9 18:53:24 10° WNW 18:56:15 26° SW 18:59:04 10° SSE visible
